EZS3CM LIME-LSZH

Flight info

Callsign EZS3CM
Flight time 0h 33m
Altitude 24000
Route PEPAG DCT CANNE Z651 KELIP
Aircraft A320/M-SDE3FGHIRWY/LB1

Departure

Time 2026-05-05 17:44
Airport Il Caravaggio International Airport (LIME)

Arrival

Time 2026-05-05 18:17
Airport Zürich Airport (LSZH)
Time Latitude Longitude Altitude Speed Heading
2026-05-05 17:19 45.66787 9.69287 787 ft 0 kts 195°
2026-05-05 17:34 45.66800 9.69292 787 ft 4 kts 195°
2026-05-05 17:34 45.66823 9.69301 773 ft 2 kts 195°
2026-05-05 17:35 45.66846 9.69306 787 ft 4 kts 171°
2026-05-05 17:35 45.66867 9.69293 787 ft 4 kts 130°
2026-05-05 17:35 45.66880 9.69262 787 ft 4 kts 107°
2026-05-05 17:35 45.66883 9.69248 787 ft 0 kts 105°
2026-05-05 17:37 45.66882 9.69252 787 ft 2 kts 105°
2026-05-05 17:37 45.66877 9.69279 787 ft 4 kts 105°
2026-05-05 17:38 45.66869 9.69319 787 ft 4 kts 105°
2026-05-05 17:38 45.66860 9.69364 787 ft 8 kts 106°
2026-05-05 17:38 45.66846 9.69439 787 ft 7 kts 104°
2026-05-05 17:38 45.66834 9.69507 787 ft 9 kts 105°
2026-05-05 17:39 45.66812 9.69626 787 ft 15 kts 105°
2026-05-05 17:39 45.66781 9.69789 787 ft 18 kts 105°
2026-05-05 17:39 45.66747 9.69969 787 ft 20 kts 105°
2026-05-05 17:39 45.66711 9.70164 787 ft 21 kts 105°
2026-05-05 17:40 45.66674 9.70372 787 ft 22 kts 104°
2026-05-05 17:40 45.66632 9.70591 787 ft 23 kts 105°
2026-05-05 17:40 45.66590 9.70823 787 ft 25 kts 104°
2026-05-05 17:40 45.66545 9.71063 787 ft 25 kts 107°
2026-05-05 17:41 45.66485 9.71304 787 ft 26 kts 104°
2026-05-05 17:41 45.66439 9.71560 787 ft 27 kts 100°
2026-05-05 17:41 45.66472 9.71812 787 ft 26 kts 85°
2026-05-05 17:41 45.66434 9.72072 787 ft 27 kts 104°
2026-05-05 17:42 45.66390 9.72315 787 ft 17 kts 104°
2026-05-05 17:42 45.66378 9.72480 787 ft 18 kts 83°
2026-05-05 17:42 45.66438 9.72554 787 ft 15 kts 298°
2026-05-05 17:42 45.66446 9.72516 787 ft 0 kts 287°
2026-05-05 17:43 45.66458 9.72448 787 ft 35 kts 284°
2026-05-05 17:43 45.66586 9.71760 787 ft 105 kts 285°
2026-05-05 17:43 45.66825 9.70481 790 ft 158 kts 285°
2026-05-05 17:43 45.67114 9.68931 1314 ft 163 kts 287°
2026-05-05 17:44 45.67257 9.67337 1982 ft 166 kts 251°
2026-05-05 17:44 45.66538 9.66131 2619 ft 162 kts 202°
2026-05-05 17:44 45.65510 9.65512 3292 ft 160 kts 210°
2026-05-05 17:44 45.64695 9.64419 3898 ft 162 kts 228°
2026-05-05 17:45 45.63916 9.63135 4242 ft 182 kts 227°
2026-05-05 17:45 45.63031 9.61689 4504 ft 204 kts 228°
2026-05-05 17:45 45.62047 9.60071 4743 ft 228 kts 228°
2026-05-05 17:45 45.60977 9.58292 5443 ft 241 kts 229°
2026-05-05 17:46 45.59814 9.56553 6305 ft 243 kts 215°
2026-05-05 17:46 45.58260 9.55647 7149 ft 246 kts 188°
2026-05-05 17:46 45.56541 9.55485 8014 ft 248 kts 185°
2026-05-05 17:46 45.54813 9.55368 8925 ft 249 kts 185°
2026-05-05 17:47 45.53066 9.55443 9765 ft 256 kts 168°
2026-05-05 17:47 45.51463 9.56611 10499 ft 267 kts 140°
2026-05-05 17:47 45.50440 9.58820 11200 ft 279 kts 110°
2026-05-05 17:47 45.50212 9.61605 11885 ft 290 kts 86°
2026-05-05 17:48 45.50784 9.64373 12564 ft 297 kts 60°
2026-05-05 17:48 45.52154 9.66590 13258 ft 301 kts 32°
2026-05-05 17:48 45.54059 9.67755 13937 ft 299 kts
2026-05-05 17:48 45.56101 9.67659 14429 ft 293 kts 339°
2026-05-05 17:49 45.57928 9.66443 15041 ft 290 kts 323°
2026-05-05 17:49 45.59660 9.64936 15687 ft 293 kts 322°
2026-05-05 17:49 45.61430 9.63422 16240 ft 303 kts 324°
2026-05-05 17:49 45.63308 9.61907 16374 ft 325 kts 325°
2026-05-05 17:50 45.65358 9.60310 16503 ft 346 kts 326°
2026-05-05 17:50 45.67545 9.58636 16636 ft 366 kts 327°
2026-05-05 17:50 45.69852 9.56878 16771 ft 384 kts 327°
2026-05-05 17:50 45.72245 9.55047 17143 ft 394 kts 326°
2026-05-05 17:51 45.74515 9.52872 17663 ft 393 kts 316°
2026-05-05 17:51 45.76484 9.50166 18200 ft 391 kts 306°
2026-05-05 17:51 45.78129 9.47081 18725 ft 391 kts 301°
2026-05-05 17:51 45.79737 9.43914 19281 ft 393 kts 301°
2026-05-05 17:52 45.81276 9.40889 19773 ft 396 kts 301°
2026-05-05 17:52 45.82902 9.37692 20266 ft 398 kts 301°
2026-05-05 17:52 45.84520 9.34515 20774 ft 400 kts 301°
2026-05-05 17:52 45.86167 9.31283 21268 ft 403 kts 301°
2026-05-05 17:53 45.87823 9.28028 21751 ft 405 kts 300°
2026-05-05 17:53 45.89490 9.24746 22235 ft 408 kts 301°
2026-05-05 17:53 45.91191 9.21397 22710 ft 411 kts 300°
2026-05-05 17:53 45.92857 9.18111 23182 ft 413 kts 300°
2026-05-05 17:54 45.94435 9.14989 23565 ft 416 kts 300°
2026-05-05 17:54 45.96137 9.11618 23913 ft 418 kts 300°
2026-05-05 17:54 45.97846 9.08502 23987 ft 428 kts 306°
2026-05-05 17:54 46.00038 9.05488 24004 ft 443 kts 315°
2026-05-05 17:55 46.02536 9.02832 24010 ft 447 kts 319°
2026-05-05 17:55 46.05062 9.00218 24004 ft 448 kts 319°
2026-05-05 17:55 46.07594 8.97593 24002 ft 448 kts 318°
2026-05-05 17:55 46.10121 8.94964 24004 ft 448 kts 318°
2026-05-05 17:56 46.12649 8.92336 24001 ft 449 kts 319°
2026-05-05 17:56 46.15349 8.90036 24001 ft 456 kts 329°
2026-05-05 17:56 46.18324 8.88359 24004 ft 463 kts 339°
2026-05-05 17:56 46.21492 8.87389 24000 ft 469 kts 348°
2026-05-05 17:57 46.24737 8.86896 24009 ft 470 kts 349°
2026-05-05 17:57 46.27987 8.86417 24002 ft 469 kts 349°
2026-05-05 17:57 46.31190 8.85939 24000 ft 469 kts 349°
2026-05-05 17:57 46.34414 8.85456 24001 ft 469 kts 349°
2026-05-05 17:58 46.37663 8.84971 24019 ft 469 kts 349°
2026-05-05 17:58 46.40908 8.84486 24003 ft 468 kts 350°
2026-05-05 17:58 46.44137 8.84002 23993 ft 466 kts 350°
2026-05-05 17:58 46.47377 8.83511 23983 ft 469 kts 349°
2026-05-05 17:59 46.50625 8.83014 23988 ft 470 kts 349°
2026-05-05 17:59 46.53868 8.82517 23986 ft 469 kts 349°
2026-05-05 17:59 46.57116 8.82021 23996 ft 470 kts 350°
2026-05-05 17:59 46.60367 8.81530 23989 ft 469 kts 350°
2026-05-05 18:00 46.63605 8.81045 23800 ft 465 kts 350°
2026-05-05 18:00 46.66812 8.80565 23154 ft 460 kts 350°
2026-05-05 18:00 46.69981 8.80091 22509 ft 455 kts 350°
2026-05-05 18:00 46.73114 8.79616 21891 ft 449 kts 350°
2026-05-05 18:01 46.76205 8.79147 21206 ft 445 kts 350°
2026-05-05 18:01 46.78155 8.78852 20792 ft 441 kts 350°
2026-05-05 18:01 46.82187 8.78242 19993 ft 436 kts 351°
2026-05-05 18:01 46.85192 8.77781 19427 ft 432 kts 351°
2026-05-05 18:02 46.88172 8.77319 18897 ft 428 kts 351°
2026-05-05 18:02 46.90129 8.77015 18533 ft 424 kts 351°
2026-05-05 18:02 46.96168 8.76082 17313 ft 415 kts 352°
2026-05-05 18:03 46.98994 8.75646 16690 ft 411 kts 351°
2026-05-05 18:03 47.01766 8.75210 16133 ft 407 kts 351°
2026-05-05 18:03 47.04527 8.74771 15594 ft 403 kts 351°
2026-05-05 18:03 47.07299 8.74318 15074 ft 399 kts 350°
2026-05-05 18:04 47.10039 8.73739 14566 ft 394 kts 348°
2026-05-05 18:04 47.12692 8.73055 14166 ft 391 kts 346°
2026-05-05 18:04 47.15367 8.72300 13852 ft 390 kts 346°
2026-05-05 18:04 47.18018 8.71537 13526 ft 388 kts 346°
2026-05-05 18:05 47.20596 8.70804 13191 ft 386 kts 346°
2026-05-05 18:05 47.23149 8.70101 12928 ft 386 kts 346°
2026-05-05 18:05 47.25789 8.69353 12913 ft 386 kts 343°
2026-05-05 18:05 47.28330 8.68149 12915 ft 383 kts 333°
2026-05-05 18:06 47.30766 8.66503 12902 ft 385 kts 331°
2026-05-05 18:06 47.32395 8.65380 12730 ft 380 kts 330°
2026-05-05 18:06 47.35419 8.63270 11978 ft 374 kts 328°
2026-05-05 18:06 47.37438 8.60984 11381 ft 362 kts 308°
2026-05-05 18:07 47.38559 8.58478 10887 ft 352 kts 290°
2026-05-05 18:07 47.39418 8.54898 10222 ft 348 kts 284°
2026-05-05 18:07 47.40088 8.51659 9951 ft 337 kts 284°
2026-05-05 18:07 47.40624 8.49059 9878 ft 324 kts 284°
2026-05-05 18:08 47.41259 8.45995 9887 ft 307 kts 284°
2026-05-05 18:08 47.41893 8.43069 9893 ft 292 kts 288°
2026-05-05 18:08 47.42958 8.40668 9825 ft 287 kts 309°
2026-05-05 18:08 47.44403 8.38631 9529 ft 285 kts 313°
2026-05-05 18:09 47.45870 8.36674 9171 ft 283 kts 314°
2026-05-05 18:09 47.47145 8.34982 8871 ft 282 kts 313°
2026-05-05 18:09 47.48606 8.33097 8678 ft 274 kts 314°
2026-05-05 18:09 47.50035 8.31300 8516 ft 264 kts 314°
2026-05-05 18:10 47.51418 8.29574 8270 ft 257 kts 314°
2026-05-05 18:10 47.52760 8.27901 8134 ft 246 kts 314°
2026-05-05 18:10 47.53648 8.26803 7987 ft 239 kts 314°
2026-05-05 18:10 47.54871 8.25295 7798 ft 234 kts 315°
2026-05-05 18:11 47.56216 8.24247 7525 ft 243 kts 342°
2026-05-05 18:11 47.57898 8.24315 7238 ft 252 kts 14°
2026-05-05 18:11 47.59389 8.25667 6950 ft 256 kts 45°
2026-05-05 18:11 47.60527 8.27688 6625 ft 256 kts 52°
2026-05-05 18:12 47.61456 8.29904 6342 ft 254 kts 73°
2026-05-05 18:12 47.61661 8.32309 6043 ft 246 kts 97°
2026-05-05 18:12 47.61304 8.34699 5574 ft 240 kts 117°
2026-05-05 18:12 47.60461 8.36748 5087 ft 234 kts 136°
2026-05-05 18:13 47.59477 8.38275 4570 ft 229 kts 142°
2026-05-05 18:13 47.58316 8.39802 4171 ft 216 kts 143°
2026-05-05 18:13 47.57241 8.41242 3890 ft 203 kts 142°
2026-05-05 18:13 47.56250 8.42596 3614 ft 190 kts 142°
2026-05-05 18:14 47.55318 8.43876 3376 ft 176 kts 142°
2026-05-05 18:14 47.54552 8.44926 3170 ft 167 kts 141°
2026-05-05 18:14 47.53667 8.46138 2938 ft 162 kts 141°
2026-05-05 18:14 47.52855 8.47248 2731 ft 158 kts 141°
2026-05-05 18:15 47.52052 8.48347 2515 ft 156 kts 141°
2026-05-05 18:15 47.51264 8.49430 2308 ft 153 kts 140°
2026-05-05 18:15 47.50493 8.50495 2083 ft 151 kts 140°
2026-05-05 18:15 47.49721 8.51538 1883 ft 149 kts 139°
2026-05-05 18:16 47.48965 8.52588 1676 ft 148 kts 139°
2026-05-05 18:16 47.48208 8.53613 1439 ft 147 kts 139°
2026-05-05 18:16 47.47541 8.54517 1397 ft 115 kts 137°
2026-05-05 18:16 47.47071 8.55159 1385 ft 71 kts 137°
2026-05-05 18:17 47.46742 8.55591 1399 ft 53 kts 142°
2026-05-05 18:17 47.46523 8.55702 1399 ft 28 kts 169°
2026-05-05 18:17 47.46425 8.55735 1398 ft 7 kts 164°
2026-05-05 18:17 47.46383 8.55760 1402 ft 5 kts 149°
2026-05-05 18:18 47.46363 8.55783 1404 ft 3 kts 139°
2026-05-05 18:18 47.46334 8.55822 1403 ft 9 kts 138°
2026-05-05 18:18 47.46274 8.55903 1406 ft 12 kts 137°
2026-05-05 18:18 47.46214 8.55984 1410 ft 11 kts 146°
2026-05-05 18:19 47.46135 8.55996 1406 ft 13 kts 187°
2026-05-05 18:19 47.46039 8.55980 1407 ft 15 kts 185°
2026-05-05 18:19 47.45930 8.55949 1410 ft 17 kts 199°
2026-05-05 18:19 47.45835 8.55897 1411 ft 10 kts 200°
2026-05-05 18:20 47.45754 8.55874 1409 ft 14 kts 186°
2026-05-05 18:20 47.45662 8.55858 1408 ft 8 kts 187°
2026-05-05 18:20 47.45644 8.55855 1408 ft 0 kts 187°
2026-05-05 18:20 47.45642 8.55854 1408 ft 1 kts 192°
2026-05-05 18:21 47.45636 8.55810 1408 ft 9 kts 285°
2026-05-05 18:21 47.45651 8.55682 1407 ft 15 kts 277°
2026-05-05 18:21 47.45663 8.55502 1408 ft 20 kts 275°
2026-05-05 18:21 47.45630 8.55338 1402 ft 18 kts 174°
2026-05-05 18:22 47.45516 8.55412 1410 ft 18 kts 155°
2026-05-05 18:22 47.45404 8.55489 1410 ft 18 kts 155°
2026-05-05 18:22 47.45292 8.55564 1413 ft 18 kts 162°
2026-05-05 18:22 47.45165 8.55626 1405 ft 20 kts 155°
2026-05-05 18:23 47.45046 8.55707 1409 ft 15 kts 154°
2026-05-05 18:23 47.44956 8.55813 1405 ft 19 kts 115°
2026-05-05 18:23 47.44897 8.55965 1403 ft 19 kts 158°
2026-05-05 18:23 47.44772 8.56050 1402 ft 21 kts 155°
2026-05-05 18:24 47.44684 8.56127 1400 ft 10 kts 102°
2026-05-05 18:24 47.44708 8.56211 1399 ft 7 kts 64°
2026-05-05 18:24 47.44717 8.56239 1402 ft 2 kts 66°
2026-05-05 18:24 47.44717 8.56242 1401 ft 0 kts 66°